Time,TemperatureF,DewpointF,PressureIn,WindDirection,WindDirectionDegrees,WindSpeedMPH,WindSpeedGustMPH,Humidity,HourlyPrecipIn,Conditions,Clouds,dailyrainin,SolarRadiationWatts/m^2,SoftwareType,DateUTC
2013-01-14 00:02:00,1.0,-11.0,-100.00,East,81,7.0,8.0,56,0.00,,,-99.99,0.000000,,2013-01-14 07:02:00,
2013-01-14 00:12:00,1.0,-11.0,-100.00,East,81,7.0,8.0,56,0.00,,,-99.99,0.000000,,2013-01-14 07:12:00,
2013-01-14 00:22:00,1.0,-11.0,-100.00,East,81,7.0,8.0,56,0.00,,,-99.99,0.000000,,2013-01-14 07:22:00,
2013-01-14 00:32:00,1.0,-11.0,-100.00,East,81,7.0,8.0,56,0.00,,,-99.99,0.000000,,2013-01-14 07:32:00,
2013-01-14 00:52:00,0.0,-12.0,-100.00,East,79,8.0,11.0,56,0.00,,,-99.99,0.000000,,2013-01-14 07:52:00,
2013-01-14 01:02:00,0.0,-12.0,-100.00,East,79,8.0,11.0,56,0.00,,,-99.99,0.000000,,2013-01-14 08:02:00,
2013-01-14 01:12:00,0.0,-12.0,-100.00,East,79,8.0,11.0,56,0.00,,,-99.99,0.000000,,2013-01-14 08:12:00,
2013-01-14 01:22:00,0.0,-12.0,-100.00,East,79,8.0,11.0,56,0.00,,,-99.99,0.000000,,2013-01-14 08:22:00,
2013-01-14 01:32:00,0.0,-12.0,-100.00,East,79,8.0,11.0,56,0.00,,,-99.99,0.000000,,2013-01-14 08:32:00,
2013-01-14 01:53:00,-1.0,-11.0,-100.00,ENE,76,7.0,9.0,60,0.00,,,-99.99,0.000000,,2013-01-14 08:53:00,
2013-01-14 02:02:00,-1.0,-11.0,-100.00,ENE,76,7.0,9.0,60,0.00,,,-99.99,0.000000,,2013-01-14 09:02:00,
2013-01-14 02:12:00,-1.0,-11.0,-100.00,ENE,76,7.0,9.0,60,0.00,,,-99.99,0.000000,,2013-01-14 09:12:00,
2013-01-14 02:22:00,-1.0,-11.0,-100.00,ENE,76,7.0,9.0,60,0.00,,,-99.99,0.000000,,2013-01-14 09:22:00,
2013-01-14 02:33:00,-1.0,-11.0,-100.00,ENE,76,7.0,9.0,60,0.00,,,-99.99,0.000000,,2013-01-14 09:33:00,
2013-01-14 02:53:00,-3.0,-13.0,-100.00,East,82,7.0,10.0,60,0.00,,,-99.99,0.000000,,2013-01-14 09:53:00,
2013-01-14 03:02:00,-3.0,-13.0,-100.00,East,82,7.0,10.0,60,0.00,,,-99.99,0.000000,,2013-01-14 10:02:00,
2013-01-14 03:12:00,-3.0,-13.0,-100.00,East,82,7.0,10.0,60,0.00,,,-99.99,0.000000,,2013-01-14 10:12:00,
2013-01-14 03:22:00,-3.0,-13.0,-100.00,East,82,7.0,10.0,60,0.00,,,-99.99,0.000000,,2013-01-14 10:22:00,
2013-01-14 03:32:00,-3.0,-13.0,-100.00,East,82,7.0,10.0,60,0.00,,,-99.99,0.000000,,2013-01-14 10:32:00,
2013-01-14 03:53:00,-4.0,-14.0,-100.00,ENE,70,7.0,10.0,62,0.00,,,-99.99,0.000000,,2013-01-14 10:53:00,
2013-01-14 04:02:00,-4.0,-14.0,-100.00,ENE,70,7.0,10.0,62,0.00,,,-99.99,0.000000,,2013-01-14 11:02:00,
2013-01-14 04:12:00,-4.0,-14.0,-100.00,ENE,70,7.0,10.0,62,0.00,,,-99.99,0.000000,,2013-01-14 11:12:00,
2013-01-14 04:22:00,-4.0,-14.0,-100.00,ENE,70,7.0,10.0,62,0.00,,,-99.99,0.000000,,2013-01-14 11:22:00,
2013-01-14 04:32:00,-4.0,-14.0,-100.00,ENE,70,7.0,10.0,62,0.00,,,-99.99,0.000000,,2013-01-14 11:32:00,
2013-01-14 04:53:00,-5.0,-14.0,-100.00,ENE,67,10.0,14.0,63,0.00,,,-99.99,0.000000,,2013-01-14 11:53:00,
2013-01-14 05:02:00,-5.0,-14.0,-100.00,ENE,67,10.0,14.0,63,0.00,,,-99.99,0.000000,,2013-01-14 12:02:00,
2013-01-14 05:12:00,-5.0,-14.0,-100.00,ENE,67,10.0,14.0,63,0.00,,,-99.99,0.000000,,2013-01-14 12:12:00,
2013-01-14 05:22:00,-5.0,-14.0,-100.00,ENE,67,10.0,14.0,63,0.00,,,-99.99,0.000000,,2013-01-14 12:22:00,
2013-01-14 05:33:00,-5.0,-14.0,-100.00,ENE,67,10.0,14.0,63,0.00,,,-99.99,0.000000,,2013-01-14 12:33:00,
2013-01-14 05:53:00,-5.0,-14.0,-100.00,NE,54,10.0,14.0,63,0.00,,,-99.99,0.000000,,2013-01-14 12:53:00,
2013-01-14 06:03:00,-5.0,-14.0,-100.00,NE,54,10.0,14.0,63,0.00,,,-99.99,0.000000,,2013-01-14 13:03:00,
2013-01-14 06:12:00,-5.0,-14.0,-100.00,NE,54,10.0,14.0,63,0.00,,,-99.99,0.000000,,2013-01-14 13:12:00,
2013-01-14 06:22:00,-5.0,-14.0,-100.00,NE,54,10.0,14.0,63,0.00,,,-99.99,0.000000,,2013-01-14 13:22:00,
2013-01-14 06:33:00,-5.0,-14.0,-100.00,NE,54,10.0,14.0,63,0.00,,,-99.99,0.000000,,2013-01-14 13:33:00,
2013-01-14 06:53:00,-6.0,-15.0,-100.00,NE,49,11.0,13.0,64,0.00,,,-99.99,0.000000,,2013-01-14 13:53:00,
2013-01-14 07:02:00,-6.0,-15.0,-100.00,NE,49,11.0,13.0,64,0.00,,,-99.99,0.000000,,2013-01-14 14:02:00,
2013-01-14 07:12:00,-6.0,-15.0,-100.00,NE,49,11.0,13.0,64,0.00,,,-99.99,0.000000,,2013-01-14 14:12:00,
2013-01-14 07:22:00,-6.0,-15.0,-100.00,NE,49,11.0,13.0,64,0.00,,,-99.99,0.000000,,2013-01-14 14:22:00,
2013-01-14 07:32:00,-6.0,-15.0,-100.00,NE,49,11.0,13.0,64,0.00,,,-99.99,0.000000,,2013-01-14 14:32:00,
2013-01-14 07:53:00,-6.0,-14.0,-100.00,ENE,57,11.0,15.0,66,0.00,,,-99.99,1.000000,,2013-01-14 14:53:00,
2013-01-14 08:03:00,-6.0,-14.0,-100.00,ENE,57,11.0,15.0,66,0.00,,,-99.99,1.000000,,2013-01-14 15:03:00,
2013-01-14 08:12:00,-6.0,-14.0,-100.00,ENE,57,11.0,15.0,66,0.00,,,-99.99,1.000000,,2013-01-14 15:12:00,
2013-01-14 08:23:00,-6.0,-14.0,-100.00,ENE,57,11.0,15.0,66,0.00,,,-99.99,1.000000,,2013-01-14 15:23:00,
2013-01-14 08:33:00,-6.0,-14.0,-100.00,ENE,57,11.0,15.0,66,0.00,,,-99.99,1.000000,,2013-01-14 15:33:00,
2013-01-14 08:53:00,-4.0,-13.0,-100.00,NE,47,10.0,13.0,63,0.00,,,0.00,19.000000,,2013-01-14 15:53:00,
2013-01-14 09:02:00,-4.0,-13.0,-100.00,NE,47,10.0,13.0,63,0.00,,,0.00,19.000000,,2013-01-14 16:02:00,
2013-01-14 09:12:00,-4.0,-13.0,-100.00,NE,47,10.0,13.0,63,0.00,,,0.00,19.000000,,2013-01-14 16:12:00,
2013-01-14 09:23:00,-4.0,-13.0,-100.00,NE,47,10.0,13.0,63,0.00,,,0.00,19.000000,,2013-01-14 16:23:00,
2013-01-14 09:33:00,-4.0,-13.0,-100.00,NE,47,10.0,13.0,63,0.00,,,0.00,19.000000,,2013-01-14 16:33:00,
2013-01-14 09:53:00,-3.0,-13.0,-100.00,NE,50,12.0,16.0,61,0.00,,,0.00,39.000000,,2013-01-14 16:53:00,
2013-01-14 10:03:00,-3.0,-13.0,-100.00,NE,50,12.0,16.0,61,0.00,,,0.00,39.000000,,2013-01-14 17:03:00,
2013-01-14 10:12:00,-3.0,-13.0,-100.00,NE,50,12.0,16.0,61,0.00,,,0.00,39.000000,,2013-01-14 17:12:00,
2013-01-14 10:22:00,-3.0,-13.0,-100.00,NE,50,12.0,16.0,61,0.00,,,0.00,39.000000,,2013-01-14 17:22:00,
2013-01-14 10:33:00,-3.0,-13.0,-100.00,NE,50,12.0,16.0,61,0.00,,,0.00,39.000000,,2013-01-14 17:33:00,
2013-01-14 10:53:00,0.0,-12.0,-100.00,ENE,58,9.0,17.0,56,0.00,,,0.00,209.000000,,2013-01-14 17:53:00,
2013-01-14 11:03:00,0.0,-12.0,-100.00,ENE,58,9.0,17.0,56,0.00,,,0.00,209.000000,,2013-01-14 18:03:00,
2013-01-14 11:12:00,0.0,-12.0,-100.00,ENE,58,9.0,17.0,56,0.00,,,0.00,209.000000,,2013-01-14 18:12:00,
2013-01-14 11:22:00,0.0,-12.0,-100.00,ENE,58,9.0,17.0,56,0.00,,,0.00,209.000000,,2013-01-14 18:22:00,
2013-01-14 11:33:00,0.0,-12.0,-100.00,ENE,58,9.0,17.0,56,0.00,,,0.00,209.000000,,2013-01-14 18:33:00,
2013-01-14 11:53:00,4.0,-11.0,-100.00,ENE,57,6.0,11.0,49,0.00,,,0.00,550.000000,,2013-01-14 18:53:00,
2013-01-14 12:03:00,4.0,-11.0,-100.00,ENE,57,6.0,11.0,49,0.00,,,0.00,550.000000,,2013-01-14 19:03:00,
2013-01-14 12:32:00,4.0,-11.0,-100.00,ENE,57,6.0,11.0,49,0.00,,,0.00,550.000000,,2013-01-14 19:32:00,
2013-01-14 12:53:00,9.0,-10.0,-100.00,East,98,4.0,8.0,41,0.00,,,0.00,597.000000,,2013-01-14 19:53:00,
2013-01-14 13:03:00,9.0,-10.0,-100.00,East,98,4.0,8.0,41,0.00,,,0.00,597.000000,,2013-01-14 20:03:00,
2013-01-14 13:12:00,9.0,-10.0,-100.00,East,98,4.0,8.0,41,0.00,,,0.00,597.000000,,2013-01-14 20:12:00,
2013-01-14 13:22:00,9.0,-10.0,-100.00,East,98,4.0,8.0,41,0.00,,,0.00,597.000000,,2013-01-14 20:22:00,
2013-01-14 13:33:00,9.0,-10.0,-100.00,East,98,4.0,8.0,41,0.00,,,0.00,597.000000,,2013-01-14 20:33:00,
2013-01-14 13:53:00,10.0,-9.0,-100.00,East,86,6.0,9.0,40,0.00,,,0.00,605.000000,,2013-01-14 20:53:00,
2013-01-14 14:02:00,10.0,-9.0,-100.00,East,86,6.0,9.0,40,0.00,,,0.00,605.000000,,2013-01-14 21:02:00,
2013-01-14 14:12:00,10.0,-9.0,-100.00,East,86,6.0,9.0,40,0.00,,,0.00,605.000000,,2013-01-14 21:12:00,
2013-01-14 14:22:00,10.0,-9.0,-100.00,East,86,6.0,9.0,40,0.00,,,0.00,605.000000,,2013-01-14 21:22:00,
2013-01-14 14:32:00,10.0,-9.0,-100.00,East,86,6.0,9.0,40,0.00,,,0.00,605.000000,,2013-01-14 21:32:00,
2013-01-14 14:53:00,10.0,-9.0,-100.00,NE,47,7.0,11.0,41,0.00,,,0.00,523.000000,,2013-01-14 21:53:00,
2013-01-14 15:02:00,10.0,-9.0,-100.00,NE,47,7.0,11.0,41,0.00,,,0.00,523.000000,,2013-01-14 22:02:00,
2013-01-14 15:12:00,10.0,-9.0,-100.00,NE,47,7.0,11.0,41,0.00,,,0.00,523.000000,,2013-01-14 22:12:00,
2013-01-14 15:23:00,10.0,-9.0,-100.00,NE,47,7.0,11.0,41,0.00,,,0.00,523.000000,,2013-01-14 22:23:00,
2013-01-14 15:32:00,10.0,-9.0,-100.00,NE,47,7.0,11.0,41,0.00,,,0.00,523.000000,,2013-01-14 22:32:00,
2013-01-14 15:52:00,10.0,-9.0,-100.00,ENE,57,7.0,11.0,40,0.00,,,0.00,383.000000,,2013-01-14 22:52:00,
2013-01-14 16:02:00,10.0,-9.0,-100.00,ENE,57,7.0,11.0,40,0.00,,,0.00,383.000000,,2013-01-14 23:02:00,
2013-01-14 16:12:00,10.0,-9.0,-100.00,ENE,57,7.0,11.0,40,0.00,,,0.00,383.000000,,2013-01-14 23:12:00,
2013-01-14 16:22:00,10.0,-9.0,-100.00,ENE,57,7.0,11.0,40,0.00,,,0.00,383.000000,,2013-01-14 23:22:00,
2013-01-14 16:32:00,10.0,-9.0,-100.00,ENE,57,7.0,11.0,40,0.00,,,0.00,383.000000,,2013-01-14 23:32:00,
2013-01-14 16:53:00,8.0,-11.0,-100.00,NE,42,9.0,12.0,41,0.00,,,0.00,205.000000,,2013-01-14 23:53:00,
2013-01-14 17:02:00,8.0,-11.0,-100.00,NE,42,9.0,12.0,41,0.00,,,0.00,205.000000,,2013-01-15 00:02:00,
2013-01-14 17:12:00,8.0,-11.0,-100.00,NE,42,9.0,12.0,41,0.00,,,0.00,205.000000,,2013-01-15 00:12:00,
2013-01-14 17:22:00,8.0,-11.0,-100.00,NE,42,9.0,12.0,41,0.00,,,0.00,205.000000,,2013-01-15 00:22:00,
2013-01-14 17:32:00,8.0,-11.0,-100.00,NE,42,9.0,12.0,41,0.00,,,0.00,205.000000,,2013-01-15 00:32:00,
2013-01-14 17:53:00,5.0,-11.0,-100.00,NE,36,8.0,10.0,46,0.00,,,0.00,27.000000,,2013-01-15 00:53:00,
2013-01-14 18:02:00,5.0,-11.0,-100.00,NE,36,8.0,10.0,46,0.00,,,0.00,27.000000,,2013-01-15 01:02:00,
2013-01-14 18:12:00,5.0,-11.0,-100.00,NE,36,8.0,10.0,46,0.00,,,0.00,27.000000,,2013-01-15 01:12:00,
2013-01-14 18:22:00,5.0,-11.0,-100.00,NE,36,8.0,10.0,46,0.00,,,0.00,27.000000,,2013-01-15 01:22:00,
2013-01-14 18:32:00,5.0,-11.0,-100.00,NE,36,8.0,10.0,46,0.00,,,0.00,27.000000,,2013-01-15 01:32:00,
2013-01-14 18:52:00,4.0,-12.0,-100.00,NNE,32,3.0,9.0,47,0.00,,,0.00,0.000000,,2013-01-15 01:52:00,
2013-01-14 19:02:00,4.0,-12.0,-100.00,NNE,32,3.0,9.0,47,0.00,,,0.00,0.000000,,2013-01-15 02:02:00,
2013-01-14 19:12:00,4.0,-12.0,-100.00,NNE,32,3.0,9.0,47,0.00,,,0.00,0.000000,,2013-01-15 02:12:00,
2013-01-14 19:22:00,4.0,-12.0,-100.00,NNE,32,3.0,9.0,47,0.00,,,0.00,0.000000,,2013-01-15 02:22:00,
2013-01-14 19:32:00,4.0,-12.0,-100.00,NNE,32,3.0,9.0,47,0.00,,,0.00,0.000000,,2013-01-15 02:32:00,
2013-01-14 19:53:00,3.0,-13.0,-100.00,East,98,1.0,5.0,46,0.00,,,0.00,0.000000,,2013-01-15 02:53:00,
2013-01-14 20:02:00,3.0,-13.0,-100.00,East,98,1.0,5.0,46,0.00,,,0.00,0.000000,,2013-01-15 03:02:00,
2013-01-14 20:12:00,3.0,-13.0,-100.00,East,98,1.0,5.0,46,0.00,,,0.00,0.000000,,2013-01-15 03:12:00,
2013-01-14 20:22:00,3.0,-13.0,-100.00,East,98,1.0,5.0,46,0.00,,,0.00,0.000000,,2013-01-15 03:22:00,
2013-01-14 20:32:00,3.0,-13.0,-100.00,East,98,1.0,5.0,46,0.00,,,0.00,0.000000,,2013-01-15 03:32:00,
2013-01-14 20:53:00,0.0,-13.0,-100.00,ESE,122,4.0,5.0,54,0.00,,,0.00,0.000000,,2013-01-15 03:53:00,
2013-01-14 21:02:00,0.0,-13.0,-100.00,ESE,122,4.0,5.0,54,0.00,,,0.00,0.000000,,2013-01-15 04:02:00,
2013-01-14 21:12:00,0.0,-13.0,-100.00,ESE,122,4.0,5.0,54,0.00,,,0.00,0.000000,,2013-01-15 04:12:00,
2013-01-14 21:22:00,0.0,-13.0,-100.00,ESE,122,4.0,5.0,54,0.00,,,0.00,0.000000,,2013-01-15 04:22:00,
2013-01-14 21:32:00,0.0,-13.0,-100.00,ESE,122,4.0,5.0,54,0.00,,,0.00,0.000000,,2013-01-15 04:32:00,
2013-01-14 21:52:00,1.0,-12.0,-100.00,SE,131,2.0,5.0,53,0.00,,,0.00,0.000000,,2013-01-15 04:52:00,
2013-01-14 22:03:00,1.0,-12.0,-100.00,SE,131,2.0,5.0,53,0.00,,,0.00,0.000000,,2013-01-15 05:03:00,
2013-01-14 22:12:00,1.0,-12.0,-100.00,SE,131,2.0,5.0,53,0.00,,,0.00,0.000000,,2013-01-15 05:12:00,
2013-01-14 22:22:00,1.0,-12.0,-100.00,SE,131,2.0,5.0,53,0.00,,,0.00,0.000000,,2013-01-15 05:22:00,
2013-01-14 22:32:00,1.0,-12.0,-100.00,SE,131,2.0,5.0,53,0.00,,,0.00,0.000000,,2013-01-15 05:32:00,
2013-01-14 22:52:00,0.0,-13.0,-100.00,East,90,0.0,4.0,54,0.00,,,0.00,0.000000,,2013-01-15 05:52:00,
2013-01-14 23:02:00,0.0,-13.0,-100.00,East,90,0.0,4.0,54,0.00,,,0.00,0.000000,,2013-01-15 06:02:00,
2013-01-14 23:12:00,0.0,-13.0,-100.00,East,90,0.0,4.0,54,0.00,,,0.00,0.000000,,2013-01-15 06:12:00,
2013-01-14 23:22:00,0.0,-13.0,-100.00,East,90,0.0,4.0,54,0.00,,,0.00,0.000000,,2013-01-15 06:22:00,
2013-01-14 23:32:00,0.0,-13.0,-100.00,East,90,0.0,4.0,54,0.00,,,0.00,0.000000,,2013-01-15 06:32:00,
2013-01-14 23:53:00,-2.0,-12.0,-100.00,East,85,3.0,4.0,60,0.00,,,0.00,0.000000,,2013-01-15 06:53:00,